Date String (YYYY-MM-DD hh:mm:ss) UTC,Instrument flags,Ambient pressure (hPa),Sample flow (lpm),Bypass flow (lpm),Sample temperature (°C),Ambient temperature (°C),ASC tube jacket temperature (°C),LED temperature (°C),Box temperature (°C),Sample RH (%),Span deviation,Mass concentration (μg/m³),Mass concentration (μg/m³),Mass concentration (μg/m³)
DateTimeUTC,F1_M11,P_M11,Q1_M11,Q2_M11,T1_M11,T2_M11,T3_M11,T4_M11,T5_M11,U1_M11,ZSPAN_M11,X2_M11,X0_M11,X1_M11
2022-05-20 05:00:00,,0815.6,4.99,0.00,29.2,28.1,00.0,38.2,31.0,14.2,0000.0,0003.84,0012.41,0001.86
2022-05-20 05:01:00,,0815.7,5.00,0.00,29.2,28.1,00.0,38.2,31.0,14.2,0000.0,0003.80,0012.26,0001.86
2022-05-20 05:02:00,,0815.8,4.99,0.00,29.2,28.1,00.0,38.2,31.0,14.2,0000.0,0003.79,0012.38,0001.86
2022-05-20 05:03:00,,0815.8,4.99,0.00,29.3,28.2,00.0,38.2,31.1,14.2,0000.0,0003.75,0013.78,0001.85
2022-05-20 05:04:00,,0815.7,5.00,0.00,29.2,28.1,00.0,38.2,31.0,14.2,0000.0,0003.74,0014.01,0001.83
2022-05-20 05:05:00,,0815.7,5.00,0.00,29.2,28.0,00.0,38.2,31.0,14.2,0000.0,0003.72,0015.57,0001.82
2022-05-20 05:06:00,,0815.9,5.01,0.00,29.2,28.0,00.0,38.2,31.0,14.2,0000.0,0003.69,0016.78,0001.80
2022-05-20 05:07:00,,0815.8,4.99,0.00,29.2,28.0,00.0,38.2,31.0,14.2,0000.0,0003.62,0016.47,0001.78
2022-05-20 05:08:00,,0815.8,5.01,0.00,29.2,28.0,00.0,38.2,31.0,14.2,0000.0,0003.61,0017.71,0001.77
2022-05-20 05:09:00,,0815.8,5.00,0.00,29.2,28.0,00.0,38.2,31.0,14.2,0000.0,0003.51,0017.34,0001.75
2022-05-20 05:10:00,,0815.8,4.99,0.00,29.2,28.1,00.0,38.2,31.0,14.2,0000.0,0003.46,0017.46,0001.73
2022-05-20 05:11:00,,0815.8,4.99,0.00,29.2,28.1,00.0,38.2,31.0,14.2,0000.0,0003.45,0018.75,0001.72
2022-05-20 05:12:00,,0815.8,5.00,0.00,29.2,28.1,00.0,38.2,31.0,14.2,0000.0,0003.49,0019.19,0001.70
2022-05-20 05:13:00,,0815.7,5.00,0.00,29.2,28.1,00.0,38.2,31.0,14.2,0000.0,0003.55,0019.94,0001.73
2022-05-20 05:14:00,,0815.8,5.01,0.00,29.2,28.1,00.0,38.2,31.0,14.2,0000.0,0003.60,0019.34,0001.75
2022-05-20 05:15:00,,0815.8,5.00,0.00,29.2,28.1,00.0,38.2,31.0,14.2,0000.0,0003.64,0019.60,0001.75
2022-05-20 05:16:00,,0815.7,5.01,0.00,29.2,28.1,00.0,38.2,31.0,14.2,0000.0,0003.67,0017.84,0001.75
2022-05-20 05:17:00,,0816.1,5.00,0.00,29.2,28.1,00.0,38.2,31.0,14.2,0000.0,0003.68,0016.27,0001.74
2022-05-20 05:18:00,,0815.4,5.00,0.00,29.2,28.1,00.0,38.2,31.0,14.2,0000.0,0003.70,0015.44,0001.75
2022-05-20 05:19:00,,0815.4,5.00,0.00,29.2,28.1,00.0,38.2,30.9,14.2,0000.0,0003.67,0013.84,0001.74
2022-05-20 05:20:00,,0815.4,5.01,0.00,29.2,28.1,00.0,38.2,30.9,14.2,0000.0,0003.73,0014.52,0001.76
2022-05-20 05:21:00,,0815.3,5.00,0.00,29.2,28.0,00.0,38.2,30.9,14.2,0000.0,0003.75,0015.35,0001.76
2022-05-20 05:22:00,,0815.3,4.99,0.00,29.2,28.0,00.0,38.2,30.9,14.2,0000.0,0003.72,0014.84,0001.76
2022-05-20 05:23:00,,0815.3,5.00,0.00,29.2,28.0,00.0,38.2,30.9,14.2,0000.0,0003.70,0015.47,0001.77
2022-05-20 05:24:00,,0815.2,5.01,0.00,29.2,28.0,00.0,38.2,30.9,14.3,0000.0,0003.63,0015.97,0001.75
2022-05-20 05:25:00,,0815.2,4.99,0.00,29.1,28.0,00.0,38.2,30.9,14.3,0000.0,0003.62,0015.74,0001.76
2022-05-20 05:26:00,,0815.3,5.00,0.00,29.1,28.0,00.0,38.2,30.9,14.3,0000.0,0003.56,0014.91,0001.76
2022-05-20 05:27:00,,0815.2,4.99,0.00,29.1,28.0,00.0,38.2,30.9,14.2,0000.0,0003.56,0014.95,0001.78
2022-05-20 05:28:00,,0815.4,5.00,0.00,29.1,27.9,00.0,38.2,30.9,14.2,0000.0,0003.57,0015.15,0001.79
2022-05-20 05:29:00,,0815.4,5.00,0.00,29.1,27.9,00.0,38.2,30.8,14.3,0000.0,0003.58,0016.96,0001.81
2022-05-20 05:30:00,,0815.5,5.00,0.00,29.1,27.9,00.0,38.1,30.8,14.3,0000.0,0003.57,0016.96,0001.82
2022-05-20 05:31:00,,0815.3,5.00,0.00,29.1,27.9,00.0,38.1,30.8,14.3,0000.0,0003.56,0016.20,0001.82
2022-05-20 05:32:00,,0815.3,5.00,0.00,29.1,27.9,00.0,38.1,30.8,14.3,0000.0,0003.58,0015.24,0001.83
2022-05-20 05:33:00,,0815.3,5.01,0.00,29.0,27.8,00.0,38.1,30.7,14.3,0000.0,0003.60,0014.44,0001.84
2022-05-20 05:34:00,,0815.4,5.00,0.00,29.0,27.8,00.0,38.1,30.7,14.3,0000.0,0003.59,0014.01,0001.86
2022-05-20 05:35:00,,0815.4,5.00,0.00,29.0,27.8,00.0,38.1,30.7,14.3,0000.0,0003.60,0013.14,0001.86
2022-05-20 05:36:00,,0816.0,5.01,0.00,29.0,27.8,00.0,38.1,30.7,14.3,0000.0,0003.60,0012.93,0001.86
2022-05-20 05:37:00,,0816.1,5.00,0.00,29.0,27.8,00.0,38.1,30.7,14.3,0000.0,0003.61,0014.07,0001.86
2022-05-20 05:38:00,,0815.6,4.99,0.00,29.0,27.8,00.0,38.1,30.7,14.3,0000.0,0003.58,0014.65,0001.84
2022-05-20 05:39:00,,0816.0,4.99,0.00,29.0,27.8,00.0,38.0,30.8,14.3,0000.0,0003.58,0015.56,0001.85
2022-05-20 05:40:00,,0815.6,4.99,0.00,29.0,27.8,00.0,38.0,30.8,14.3,0000.0,0003.55,0015.01,0001.85
2022-05-20 05:41:00,,0815.4,5.00,0.00,29.0,27.8,00.0,38.0,30.8,14.3,0000.0,0003.55,0015.27,0001.87
2022-05-20 05:42:00,,0815.4,5.01,0.00,29.0,27.9,00.0,38.0,30.8,14.3,0000.0,0003.54,0015.82,0001.87
2022-05-20 05:43:00,,0815.4,5.00,0.00,29.0,27.9,00.0,38.0,30.8,14.4,0000.0,0003.56,0016.06,0001.86
2022-05-20 05:44:00,,0815.4,5.00,0.00,29.0,27.9,00.0,38.0,30.8,14.3,0000.0,0003.57,0015.77,0001.86
2022-05-20 05:45:00,,0816.0,4.99,0.00,29.0,27.9,00.0,38.0,30.8,14.3,0000.0,0003.56,0015.26,0001.87
2022-05-20 05:46:00,,0815.6,5.00,0.00,29.0,27.9,00.0,38.0,30.8,14.3,0000.0,0003.55,0014.37,0001.87
2022-05-20 05:47:00,,0815.8,5.00,0.00,29.0,27.9,00.0,38.0,30.7,14.3,0000.0,0003.53,0013.75,0001.87
2022-05-20 05:48:00,,0816.0,4.99,0.00,29.0,27.8,00.0,38.0,30.7,14.4,0000.0,0003.50,0012.83,0001.87
2022-05-20 05:49:00,,0816.0,5.00,0.00,29.0,27.8,00.0,38.0,30.8,14.4,0000.0,0003.49,0013.20,0001.87
2022-05-20 05:50:00,,0815.6,4.99,0.00,29.0,27.8,00.0,38.0,30.8,14.4,0000.0,0003.47,0014.16,0001.86
2022-05-20 05:51:00,,0815.4,5.00,0.00,29.0,27.8,00.0,38.0,30.7,14.4,0000.0,0003.45,0013.94,0001.86
2022-05-20 05:52:00,,0815.7,4.99,0.00,29.0,27.8,00.0,38.0,30.8,14.4,0000.0,0003.47,0013.93,0001.85
2022-05-20 05:53:00,,0815.7,5.01,0.00,29.0,27.8,00.0,38.0,30.8,14.3,0000.0,0003.52,0013.72,0001.86
2022-05-20 05:54:00,,0815.6,5.01,0.00,29.0,27.8,00.0,38.0,30.7,14.3,0000.0,0003.46,0013.66,0001.87
2022-05-20 05:55:00,,0815.9,5.01,0.00,29.0,27.8,00.0,38.0,30.7,14.3,0000.0,0003.40,0014.51,0001.86
2022-05-20 05:56:00,,0815.7,5.00,0.00,29.0,27.8,00.0,38.0,30.7,14.3,0000.0,0003.40,0015.18,0001.85
2022-05-20 05:57:00,,0815.2,4.99,0.00,29.0,27.8,00.0,38.0,30.7,14.4,0000.0,0003.39,0015.51,0001.84
2022-05-20 05:58:00,,0815.2,5.00,0.00,28.9,27.8,00.0,38.0,30.7,14.4,0000.0,0003.40,0015.83,0001.85
2022-05-20 05:59:00,,0815.0,4.99,0.00,28.9,27.8,00.0,38.0,30.7,14.4,0000.0,0003.40,0015.50,0001.84
